Regional Weather Roundup
Issued by NWS Portland, ME

Home | Current Version | Previous Version | Text Only | Print | Product List | Glossary On
Versions: 1 2 3 4 5 6 7 8 9 10 11 12 13 14 15 16 17 18 19 20 21 22 23 24 25 26 27 28 29 30 31 32 33 34 35 36 37 38 39 40 41 42 43 44 45 46 47 48 49 50
000
ASUS41 KGYX 160110
RWRGYX
WEATHER ROUNDUP FOR MAINE AND NEW HAMPSHIRE
NATIONAL WEATHER SERVICE GRAY ME
800 PM EST FRI DEC 15 2017

MEZ002-005-006-010-012-015-018-020-021-024-026-027-029-160200-
MAINE

CITY           SKY/WX    TMP DP  RH WIND       PRES   REMARKS
PORTLAND       CLOUDY    21  13  71 VRB5      29.86F
SANFORD        CLOUDY    19  12  74 CALM      29.86S
BAR HARBOR     CLOUDY    19  10  68 N5        29.88F
WISCASSET      CLOUDY    18  13  80 CALM      29.87F
ROCKLAND       CLOUDY    22  12  65 CALM      29.86F
FRYEBURG       CLOUDY    15   7  70 CALM      29.83F
LEWISTONAUBURN CLOUDY    14   9  80 CALM      29.85F
AUGUSTA        CLOUDY    17   6  62 CALM      29.85F
WATERVILLE     CLOUDY    13   5  70 CALM      29.81F
BANGOR         CLOUDY    14  11  87 CALM      29.87F
GREENVILLE       N/A     13   2  61 CALM      29.74F
MILLINOCKET    CLOUDY    11   9  92 CALM      29.86F
HOULTON        CLOUDY    12   7  80 S5        29.84F
PRESQUE ISLE   CLOUDY     6   0  76 CALM      29.84F
FRENCHVILLE    CLOUDY     3  -3  76 SW5       29.77F
CARIBOU        CLOUDY     8   0  69 W3        29.82F
$$

NHZ002-005-008-009-011-012-014-160200-
NEW HAMPSHIRE

CITY           SKY/WX    TMP DP  RH WIND       PRES   REMARKS
PORTSMOUTH     CLOUDY    22  12  65 CALM      29.85R
ROCHESTER      CLOUDY    21  15  78 CALM      29.84S
NASHUA         CLOUDY    22  15  75 CALM      29.86F
MANCHESTER     CLOUDY    23  12  62 S3        29.84S
CONCORD        CLOUDY    21  12  68 CALM      29.84S
LACONIA        CLOUDY    18  10  71 W3        29.83S
PLYMOUTH       CLOUDY    17  11  79 CALM      29.82F
BERLIN         CLOUDY    11   8  88 CALM      29.75F
WHITEFIELD     CLOUDY    13  11  92 CALM      29.76F
JAFFREY        CLOUDY    19  15  84 SW3       29.80S
KEENE          CLOUDY    18  14  84 CALM      29.85R
LEBANON        CLOUDY    16  11  80 CALM      29.81F
MT WASHINGTON  PTCLDY     1 -24  29 W25         N/A  WCI -22
$$

VTZ005-007-008-160200-
VERMONT

CITY           SKY/WX    TMP DP  RH WIND       PRES   REMARKS
ST JOHNSBURY     N/A     12  10  92 MISG      29.78F
MONTPELIER     CLOUDY    15   6  67 S3        29.79F
BURLINGTON     CLOUDY    21  10  62 S9        29.80F
$$

MAZ007-012-024-CTZ003-RIZ002-NYZ038-NYZ072-160200-
SOUTHERN NEW ENGLAND AND NY

CITY           SKY/WX    TMP DP  RH WIND       PRES   REMARKS
BOSTON         CLOUDY    26  12  55 SW8       29.88F
WORCESTER      LGT SNOW  19  12  74 SW8       29.81F
NANTUCKET      LGT SNOW  31  31 100 N6        29.85F FOG
PROVIDENCE     LGT SNOW  24  21  88 NW3       29.89F FOG
HARTFORD       LGT SNOW  21  19  92 S6        29.88F FOG
ALBANY         CLOUDY    21  11  65 S10       29.87R WCI  10
NEW YORK CITY  LGT SNOW  26  22  84 W7        29.91S FOG
$$

ANZ081-ANZ082-ANZ150-NHZ014-MEZ023>029-160200-
COASTAL MARINE OBSERVATIONS

STATION/POSITION TIME  TEMP    WIND        PRES    WAVE
                       AIR SEA DIR/SP/G            HT/PER
                 (UTC) (F)     (DEG/KT/KT) (MB)    (FT/S)
MOUNT DESERT ROC 0000   29     330/  6/  7 1012.5F
MATINICUS ROCK   0000   28     360/  2/  3 1011.3F
ISLE OF SHOALS   0000   27      10/  2/  3 1011.0F
JEFFREYS LEDGE   0036      48                N/A     2/10
GEORGES BANK BUO 2350   40 50              1012.1    7/10
$$

.............KEY..............
   WCI - WIND CHILL
   TC  - TEMPERATURE IN CELSIUS
   VSB - VISIBILITY IN MILES
   HX  - HEAT INDEX
   FAIR- INDICATES FEW OR NO CLOUDS BELOW 12,000 FT, WITH NO
         SIGNIFICANT WEATHER AND/OR OBSTRUCTIONS TO VISIBILITY.





USA.gov is the U.S. government's official web portal to all federal, state and local government web resources and services.